Wind_Speed
69 71 72 73 74 75 76 77 78 79 80 80 81 82 83 83 83 83 83 83 83 83 83 83 83 83 82 83 83 83 83 84 84 84 84 85 86 86 87 87 88 88 88 89 90 90 90 90 90 90 89 88 87 87 87 87 87 87 87 88 88 89 90 91 92 90 86 86 88 90 91 92 92 92 93 93 93 94 95 95 95 95 94 94 93
71 72 74 75 76 77 78 79 79 80 80 80 81 81 82 82 83 83 83 84 84 84 84 84 84 83 83 84 84 84 84 84 85 85 85 86 86 87 88 88 88 88 88 88 88 88 88 88 88 88 88 87 87 87 87 87 87 87 88 89 90 91 92 93 94 92 88 86 88 90 91 93 93 93 94 95 95 96 97 97 97 97 97 97 97
73 75 75 76 77 77 77 77 78 78 79 80 80 81 82 83 84 84 85 85 86 86 86 86 86 86 86 86 86 86 86 86 86 86 86 86 86 87 87 87 87 87 87 87 87 87 87 87 87 87 87 88 88 88 89 89 90 91 91 92 94 94 96 97 98 98 95 91 90 93 95 97 97 97 97 99 99 99 100 101 101 102 102 102 102
74 74 75 75 75 76 76 77 78 79 80 81 82 83 83 84 84 85 86 86 87 87 88 88 88 88 88 88 88 88 88 88 88 88 88 88 87 87 86 86 87 87 87 88 88 88 89 89 89 90 91 91 91 92 93 94 94 95 96 97 98 99 100 102 103 103 102 99 96 97 99 101 102 102 101 102 103 103 104 104 105 106 106 107 107
74 75 75 76 77 78 79 80 81 82 82 82 83 83 84 84 85 85 86 86 86 87 87 88 88 88 88 88 88 88 88 88 88 88 89 89 89 88 88 88 88 89 90 90 91 91 92 93 93 94 95 95 96 97 97 98 99 100 101 102 103 104 105 106 107 108 108 107 103 102 104 106 107 107 107 107 107 108 108 108 109 109 109 110 110
75 76 77 78 79 81 81 81 82 82 82 82 83 83 84 84 84 85 86 86 86 86 86 87 87 87 87 87 87 87 88 88 89 89 90 91 91 91 91 92 92 92 93 94 94 95 96 96 97 98 100 100 100 101 102 103 104 105 106 106 107 109 110 110 112 113 114 113 111 109 109 111 112 113 113 113 113 113 113 113 113 113 113 113 114
76 77 78 79 80 80 81 81 81 82 82 83 83 83 84 85 85 85 86 86 86 85 85 85 85 85 86 86 87 88 88 89 90 92 93 94 95 95 95 96 96 97 97 98 98 99 100 100 101 102 103 104 105 106 107 108 109 110 111 112 113 114 115 116 117 118 119 118 117 116 115 115 117 118 118 118 118 118 118 118 118 117 118 118 118
76 77 78 79 80 81 81 82 82 83 83 83 84 84 84 85 85 85 85 85 85 85 85 85 85 86 87 88 89 90 91 92 93 95 96 98 99 99 100 100 101 101 102 102 103 103 104 105 106 107 108 109 110 111 112 113 115 115 116 117 119 119 120 121 122 122 123 122 121 121 120 119 120 121 122 123 122 122 123 123 123 122 122 123 122
77 78 78 79 80 80 81 81 81 82 82 82 83 83 83 84 84 84 84 85 85 86 87 87 88 89 90 92 93 94 95 96 97 99 100 102 103 104 105 105 106 106 106 107 108 108 109 110 110 112 113 114 115 116 117 118 119 120 120 121 122 123 124 124 125 125 126 126 125 124 124 123 123 124 125 126 126 126 126 127 127 127 126 126 126
76 77 77 78 78 78 79 79 79 80 80 81 81 82 83 83 84 85 86 87 88 89 91 92 93 94 95 96 97 98 99 100 102 103 105 107 108 109 109 110 111 111 111 112 113 113 114 114 116 117 118 118 119 120 121 121 122 122 123 124 124 125 126 126 127 128 128 128 127 127 127 126 126 126 127 128 129 129 129 129 130 130 130 129 128
74 75 76 76 76 77 77 78 79 80 81 81 82 84 85 86 87 88 90 91 92 94 95 96 97 99 99 100 101 103 104 105 106 108 110 111 113 114 115 115 115 116 116 117 117 118 118 119 120 121 121 122 122 123 123 123 124 124 124 125 126 126 127 127 127 128 129 129 128 128 128 127 127 128 128 129 131 131 131 131 131 131 131 131 130
73 74 75 75 76 77 78 79 80 81 83 84 85 87 88 90 91 92 94 95 96 97 99 100 101 102 104 104 106 107 108 109 111 112 114 115 117 118 119 119 119 119 120 120 120 121 121 121 122 122 122 123 123 123 123 123 124 124 124 125 125 126 127 127 127 127 128 128 128 128 128 128 127 128 129 130 131 132 132 132 132 132 132 132 131
73 74 75 76 77 79 80 81 83 85 86 88 89 91 92 93 95 96 97 98 99 101 102 103 105 106 107 108 109 110 111 112 113 114 116 116 118 120 121 120 120 120 120 120 120 121 121 121 121 121 121 122 122 123 123 123 123 123 124 124 125 126 126 127 127 127 127 127 127 127 127 127 127 127 128 129 130 131 131 130 130 130 129 130 130
75 76 78 79 80 82 83 85 86 88 89 91 92 94 95 96 98 99 100 102 103 104 105 106 107 108 109 110 110 111 112 112 113 114 115 116 118 120 121 120 119 119 119 120 120 120 120 120 120 121 121 122 122 123 123 123 123 122 123 123 123 124 124 125 125 125 125 126 126 125 125 124 124 124 124 125 126 127 126 125 124 124 124 125 126
78 79 81 82 83 85 86 88 89 91 92 94 96 97 98 100 101 102 103 104 104 105 106 107 107 108 109 110 110 110 111 112 113 114 115 116 118 120 120 119 119 119 119 120 120 120 120 121 121 121 121 121 122 122 122 121 121 121 121 121 121 121 120 120 120 120 120 121 122 121 120 120 120 119 118 119 119 119 119 117 116 117 118 118 119
81 82 84 85 86 88 89 91 93 94 95 97 98 99 100 100 101 102 102 103 104 105 105 106 107 108 109 109 110 110 111 112 113 114 115 117 119 120 120 119 119 119 119 119 120 120 120 120 121 121 120 120 120 119 119 118 118 118 118 117 117 116 115 114 114 113 114 114 115 114 114 113 113 112 112 112 111 110 109 108 108 109 109 109 109
83 85 87 88 90 91 92 93 94 95 96 97 97 98 99 99 100 101 102 103 104 104 105 106 107 108 109 110 110 111 111 112 113 114 115 117 119 120 120 119 119 119 118 118 118 118 118 118 118 117 117 116 115 114 114 114 114 114 114 113 112 110 109 108 107 107 107 107 107 106 105 104 104 103 104 104 103 102 101 99 100 100 100 100 100
86 88 89 90 91 92 92 93 93 94 95 96 96 97 98 99 100 101 102 103 104 104 105 106 107 108 109 110 111 111 111 111 112 112 112 114 116 117 117 116 116 115 114 113 113 113 112 112 112 111 110 109 108 107 107 108 109 110 109 108 106 105 103 101 100 100 100 100 100 99 98 98 97 96 97 97 96 95 94 93 94 94 93 94 94
87 88 89 89 90 91 91 92 93 94 95 96 96 98 99 99 100 101 102 103 104 105 106 106 107 107 108 108 108 108 108 107 107 107 106 107 109 111 111 110 109 108 107 107 106 106 105 104 104 104 103 102 101 100 101 103 105 105 104 103 101 99 98 96 95 95 95 94 95 95 94 94 93 92 92 92 92 91 90 90 90 89 89 89 89
86 87 87 88 89 90 91 92 93 94 95 96 97 98 99 100 101 102 102 103 103 103 104 104 103 103 103 103 102 102 101 101 100 100 99 100 102 104 104 103 102 102 101 100 99 98 97 97 96 97 97 96 95 94 95 98 101 100 99 98 96 94 92 91 90 90 90 89 89 89 89 89 89 88 88 88 88 88 87 86 86 87 87 86 86
85 86 87 88 89 91 92 93 94 95 96 97 97 98 99 99 99 100 99 99 98 98 97 97 96 96 96 96 95 95 95 94 94 94 93 94 96 98 99 97 97 97 96 95 93 92 91 91 91 92 92 92 90 89 90 94 96 94 94 93 90 87 86 85 85 85 84 84 84 84 83 83 83 83 83 83 83 83 83 82 83 83 83 83 82
86 87 88 89 90 92 93 93 94 95 95 96 96 95 95 95 94 93 92 91 91 90 90 89 89 89 89 89 89 89 89 88 88 88 88 88 90 92 93 92 92 92 91 89 88 87 87 86 87 87 88 87 86 86 88 90 90 88 89 89 86 83 81 81 81 81 80 80 80 79 79 79 78 78 78 78 78 78 77 77 78 78 78 78 78
86 87 89 90 91 91 91 92 92 92 91 90 89 88 87 86 85 85 84 84 84 83 83 83 82 82 82 82 82 82 82 83 83 83 83 83 84 86 88 88 87 88 87 86 85 84 84 84 84 85 85 84 84 85 87 86 84 84 86 86 83 81 80 79 78 78 77 77 76 76 76 76 75 74 75 74 74 73 73 73 73 74 74 73 73
87 87 88 88 88 87 87 86 85 84 83 82 81 80 80 79 79 79 79 78 77 76 76 75 75 74 75 75 75 76 77 77 78 79 79 79 80 81 82 83 83 83 83 82 81 80 80 80 81 81 81 81 82 83 83 82 81 81 82 82 81 80 78 77 77 76 75 74 74 74 74 73 72 72 72 71 70 70 69 70 70 70 69 68 67
84 84 83 82 81 80 78 77 76 76 75 75 75 74 74 74 73 72 71 70 69 68 68 68 68 68 69 69 70 71 72 72 73 74 74 74 74 74 75 75 76 77 77 76 75 74 73 73 73 73 73 74 75 76 76 76 75 76 76 76 76 76 75 75 74 73 73 72 71 71 70 70 69 68 68 67 66 66 66 66 66 65 65 64 63
79 77 75 74 72 71 70 70 69 70 70 70 70 70 69 67 66 65 63 62 61 61 61 62 63 64 64 65 66 66 67 67 67 67 67 67 67 67 67 67 67 68 68 67 66 66 65 65 64 64 64 65 65 66 67 67 68 68 68 68 69 69 70 70 70 69 69 68 67 67 66 65 64 63 63 63 62 62 63 62 61 61 61 60 59
71 69 67 66 65 64 64 64 64 65 65 65 65 64 62 61 59 58 57 56 56 56 57 58 59 60 60 61 61 61 61 61 61 61 61 60 60 60 59 59 59 58 58 58 58 57 57 56 56 56 57 57 57 58 59 59 59 60 60 61 62 63 63 63 63 63 62 61 61 60 59 58 57 58 58 58 58 58 58 58 56 56 56 56 54
63 62 61 60 60 59 59 59 59 60 60 60 59 58 56 55 54 54 53 53 52 53 54 55 56 56 55 55 55 55 55 55 55 54 54 53 53 52 52 52 51 50 50 49 49 49 49 48 48 48 49 49 49 50 51 51 52 53 54 55 55 56 56 56 56 56 55 53 52 51 51 51 52 53 53 53 53 54 54 54 53 52 52 52 50
57 57 56 56 55 55 55 55 55 55 55 55 55 54 52 51 50 51 51 50 50 50 51 51 51 51 51 51 49 49 49 49 49 48 47 46 46 45 45 44 43 43 42 42 41 41 41 41 40 41 41 41 41 42 43 44 45 46 47 47 48 48 47 47 47 46 46 45 44 45 46 46 47 48 48 48 49 49 50 50 49 48 48 48 47
53 53 52 52 52 52 52 52 52 51 50 50 51 51 51 49 47 47 47 47 47 47 48 48 47 47 47 47 46 45 43 43 43 42 41 40 40 39 39 38 37 36 36 36 35 34 34 34 33 33 33 34 34 34 35 36 37 38 38 39 38 38 38 37 37 37 38 39 39 40 40 41 42 43 43 43 44 45 46 46 46 46 46 45 44
50 50 49 49 49 49 49 49 48 47 47 46 46 47 48 48 46 44 43 43 44 44 44 45 45 44 43 43 43 42 41 40 39 38 36 35 35 34 34 33 33 32 31 31 30 29 28 28 27 26 26 27 27 27 29 30 30 31 32 32 32 32 31 31 32 32 33 34 35 35 35 35 37 38 39 39 40 41 42 43 43 43 43 42 42
47 47 47 47 47 46 46 45 45 44 43 43 43 43 44 45 45 43 42 40 40 40 41 41 42 41 40 40 39 39 38 37 36 36 34 33 32 31 30 29 29 28 27 26 26 25 25 24 23 22 22 22 23 23 24 25 25 25 25 26 27 27 26 26 27 28 29 30 31 30 30 31 32 33 34 35 36 37 39 40 40 40 40 40 39
45 45 45 45 44 44 44 43 42 41 41 40 40 40 40 40 42 42 42 40 38 37 37 38 39 38 38 38 38 37 36 36 35 34 33 32 31 29 28 27 26 25 24 23 22 22 21 20 19 19 19 19 19 19 20 20 19 19 19 20 21 21 21 21 23 24 26 26 26 26 27 27 28 29 30 31 32 33 35 36 36 36 36 36 36
42 42 42 42 42 42 41 41 40 39 39 38 38 38 38 37 38 38 39 40 39 38 37 37 37 37 37 37 37 37 36 36 35 35 34 32 31 30 29 27 26 25 24 22 21 20 19 18 16 16 15 15 14 15 15 14 14 14 14 15 16 17 18 18 19 20 21 22 23 23 24 24 25 25 26 27 28 29 31 32 32 32 33 32 32
40 40 40 40 40 40 39 39 38 37 37 37 36 36 36 36 36 36 36 36 37 37 36 36 36 36 36 36 36 36 35 35 35 35 34 33 32 31 30 29 27 26 25 24 22 21 19 18 16 15 14 13 12 12 12 12 11 11 11 12 13 14 15 16 16 16 17 19 19 20 20 21 22 22 23 25 26 27 28 29 29 29 28 27 25
38 38 38 38 38 38 37 37 36 36 36 35 35 35 34 34 34 34 34 34 34 35 35 34 34 34 35 35 35 35 35 35 35 34 34 34 33 32 31 31 29 28 26 25 23 22 20 19 18 16 15 14 13 12 11 11 10 10 10 10 11 11 12 13 14 14 15 16 17 18 19 20 21 22 23 24 25 25 24 23 23 22 21 21 20
36 36 37 37 36 36 35 35 35 34 34 34 34 33 33 33 33 33 33 33 33 33 34 34 34 34 34 34 34 34 34 34 34 34 33 33 33 32 32 31 30 29 29 27 26 24 23 21 20 18 17 16 15 13 12 11 11 10 9 9 9 9 10 11 12 13 14 14 15 16 17 18 18 19 19 20 19 18 17 17 17 17 17 17 18
35 35 35 35 35 34 34 33 33 33 33 33 32 32 32 32 32 32 32 32 32 32 32 33 33 34 34 34 34 34 34 33 33 34 33 33 33 32 32 31 30 29 29 28 27 26 25 24 22 21 20 18 17 16 15 13 12 11 10 9 8 8 8 8 8 8 9 9 10 10 11 12 13 13 14 14 14 13 14 14 15 15 16 16 16
33 33 33 33 33 32 32 31 31 31 31 31 31 31 31 31 31 31 31 32 32 32 32 32 32 32 33 33 33 33 34 34 34 34 33 33 33 32 32 31 30 30 29 28 27 26 25 24 23 22 21 19 18 17 16 15 14 13 11 10 9 8 8 7 6 6 6 7 7 7 8 9 10 10 10 11 12 12 12 13 13 14 14 15 15
32 31 31 31 31 30 30 30 30 30 30 30 30 30 30 30 30 30 30 31 31 31 31 31 31 32 32 32 33 33 33 33 33 33 33 32 32 32 31 31 30 30 29 28 27 26 25 24 23 22 21 20 19 18 17 15 14 13 12 11 10 9 9 8 7 7 7 7 7 7 8 8 9 9 9 10 11 12 12 12 12 12 14 15 15
30 30 30 30 29 29 29 28 28 28 28 28 29 29 29 29 29 29 30 30 30 30 30 30 31 31 31 31 31 31 32 32 32 31 31 31 31 31 31 30 30 29 29 28 27 27 26 25 24 23 22 21 20 19 18 16 16 15 13 12 11 11 10 10 9 9 8 8 8 8 8 8 8 9 9 9 10 11 11 11 11 12 14 15 16
28 28 28 28 28 28 27 27 27 27 27 27 27 27 28 28 28 29 29 29 30 30 30 30 30 31 31 31 31 31 31 31 31 31 31 31 31 30 30 29 29 28 28 27 27 26 26 25 24 23 22 21 20 19 18 17 17 16 15 14 13 12 12 11 11 10 9 9 8 8 8 8 8 8 9 9 10 11 11 12 13 13 14 15 16
27 27 27 27 26 26 25 25 25 26 26 26 27 27 27 28 28 28 28 29 29 29 30 30 30 30 31 31 31 31 31 31 31 31 31 31 31 30 30 29 29 28 28 27 26 26 25 24 24 23 22 21 21 20 19 18 17 16 15 14 14 13 12 12 11 11 10 9 9 9 9 9 9 9 10 10 11 11 12 13 14 14 15 15 15
25 25 25 24 24 24 23 24 24 25 25 26 26 26 27 27 27 28 28 28 29 29 29 30 30 30 31 31 31 31 31 31 31 31 31 31 31 30 30 29 29 28 28 27 27 26 25 25 24 23 23 22 21 21 20 19 18 17 17 16 15 14 13 12 12 11 10 10 10 9 9 10 10 10 10 11 11 11 12 13 13 13 14 14 15
24 23 23 22 22 22 23 24 24 25 25 26 26 26 27 27 27 27 27 28 28 29 29 30 30 30 31 31 31 32 32 32 32 32 32 31 31 30 30 29 28 28 28 27 26 26 26 25 24 24 23 23 22 21 21 20 20 19 18 17 16 15 14 13 13 12 11 11 11 11 10 10 11 11 11 11 12 12 12 12 12 12 13 13 13
22 21 21 21 21 22 23 24 24 25 25 26 26 27 27 27 27 27 27 27 28 28 28 29 29 30 31 31 32 32 33 33 33 33 33 32 32 31 30 30 29 28 27 27 26 26 25 24 24 24 23 22 22 22 21 21 21 20 20 19 18 17 15 14 13 12 12 12 12 12 12 12 12 12 12 12 12 12 12 12 13 12 12 12 12
21 20 19 20 21 22 23 24 24 24 25 25 26 26 26 26 27 27 27 27 27 27 27 28 29 29 30 31 31 32 33 33 33 34 34 34 33 33 32 31 30 29 28 28 27 26 26 25 24 23 22 22 21 20 20 20 21 21 21 21 20 18 16 14 12 12 12 12 12 12 12 12 13 13 13 13 13 13 13 13 13 12 12 12 11
18 18 19 19 20 21 22 23 24 24 24 24 25 25 25 26 26 26 26 26 26 26 27 27 28 28 29 29 30 31 31 32 33 33 33 34 34 33 33 32 31 30 29 29 28 28 27 27 26 25 24 23 22 21 20 20 20 21 22 22 21 18 16 14 12 12 12 12 13 14 14 15 15 14 14 13 13 13 12 12 12 12 11 11 10
18 18 18 19 19 21 22 23 24 25 25 25 25 25 25 25 25 25 25 25 25 26 26 26 26 27 27 28 29 29 30 31 31 32 32 32 33 33 33 33 32 31 30 29 29 28 28 27 27 26 26 25 23 22 21 20 20 21 23 23 21 19 17 15 14 14 14 15 16 16 16 16 16 16 16 15 13 12 10 9 8 8 7 7 7
17 17 18 18 19 20 21 23 24 25 26 26 26 26 25 25 25 25 25 25 25 25 25 25 26 26 27 27 28 29 29 30 30 31 31 31 32 32 32 32 32 31 30 29 28 28 27 27 27 26 26 25 24 23 22 21 21 22 23 23 20 19 18 17 16 16 17 18 18 18 17 18 18 19 19 19 19 18 17 15 13 11 9 8 6
17 17 18 18 18 19 21 22 23 25 25 26 26 26 26 26 26 25 25 25 25 25 25 25 25 26 26 27 27 28 29 29 29 30 30 30 30 31 31 31 31 31 31 30 29 28 27 27 26 26 26 25 25 24 23 22 22 23 24 23 20 19 18 18 17 18 19 19 19 19 19 19 19 19 19 19 19 19 18 18 17 16 14 13 11
Wind_Direction
270 270 270 270 270 271 271 271 271 271 271 272 273 273 274 275 275 276 276 276 276 276 276 276 276 276 276 276 275 275 275 274 274 273 273 272 272 271 270 270 269 269 268 268 268 268 268 268 269 269 269 270 270 270 270 270 270 271 271 271 272 272 272 272 273 272 271 271 272 271 271 271 270 270 270 270 269 269 269 268 268 268 268 267 267
270 270 270 270 271 271 272 272 273 274 274 275 275 276 276 277 277 277 277 277 277 277 277 277 277 277 277 277 277 276 276 276 276 275 275 275 274 274 273 272 272 271 270 270 269 269 268 268 268 268 268 268 268 268 268 268 269 269 270 270 270 271 271 272 272 272 271 270 271 271 271 271 271 271 271 271 271 270 270 270 269 269 269 268 268
270 271 271 272 273 274 275 275 276 277 277 278 278 278 278 279 279 279 279 279 279 279 278 278 278 278 277 277 277 276 276 276 276 275 275 275 274 274 273 273 272 272 271 271 270 270 269 269 268 268 268 268 268 268 268 268 269 269 270 270 271 271 271 272 272 272 271 270 269 270 271 271 271 270 270 271 271 271 271 271 271 271 270 270 269
272 273 274 275 275 276 277 277 278 278 279 279 279 279 279 279 280 280 280 280 280 280 280 280 279 279 278 278 277 277 277 276 276 275 274 274 273 272 272 272 272 271 271 271 271 270 270 270 270 269 269 269 269 269 269 270 270 270 270 270 271 271 271 271 271 272 271 270 269 269 270 270 270 270 270 270 270 270 270 270 270 270 270 270 270
275 275 276 276 277 277 278 278 279 279 279 279 279 279 279 279 279 279 279 279 279 280 280 280 280 280 280 279 279 279 278 277 277 276 275 275 274 273 272 272 272 272 271 271 271 271 271 271 271 271 271 271 271 271 271 271 271 271 271 271 271 271 271 271 272 272 272 271 270 270 270 270 270 270 270 269 269 269 269 269 269 269 269 269 269
276 276 276 277 277 277 278 278 278 278 278 278 278 278 278 278 278 278 279 279 279 279 279 279 279 279 279 279 279 279 279 278 278 277 277 276 276 275 274 274 273 273 273 272 272 272 272 272 272 272 272 272 272 272 272 272 272 271 271 271 271 271 272 272 272 272 272 272 272 271 271 271 271 271 271 270 270 269 269 269 268 268 268 268 268
276 276 277 277 277 278 278 278 278 278 278 278 279 279 279 279 279 279 279 279 278 278 278 277 277 277 277 277 277 277 277 277 277 277 277 276 276 276 275 275 274 274 274 273 273 273 273 273 273 272 273 273 273 273 273 273 272 272 272 272 272 272 272 272 272 273 273 273 273 272 272 272 272 272 271 271 271 270 270 269 269 269 268 268 268
276 277 277 277 278 278 278 279 279 279 279 279 279 279 279 279 278 278 278 278 277 277 276 276 275 275 275 275 275 275 275 276 276 276 276 276 276 275 275 275 275 274 274 274 274 274 274 273 273 273 273 273 273 273 273 273 272 272 273 273 273 273 273 273 272 273 273 273 272 272 272 272 272 272 272 271 271 271 270 270 270 269 269 268 268
277 277 277 278 278 278 278 279 279 279 279 279 279 278 278 278 277 277 277 277 276 276 276 276 276 276 276 276 276 276 276 276 276 276 276 276 276 276 275 275 275 275 275 275 274 274 274 274 274 274 274 273 273 273 273 273 273 273 273 273 273 273 273 272 272 272 272 272 272 272 271 271 271 271 271 271 271 270 270 270 270 269 269 269 269
278 279 279 279 279 279 279 279 279 279 279 278 278 278 277 277 277 277 277 277 277 277 277 277 277 277 277 277 277 277 277 277 277 277 277 277 276 276 276 276 276 276 275 275 275 275 275 275 275 274 274 274 274 274 273 273 273 273 273 272 272 272 272 272 272 272 271 271 271 271 271 271 271 271 270 270 270 270 270 269 269 269 269 269 269
280 280 280 280 280 280 280 279 279 279 278 278 278 278 278 278 278 278 279 279 279 279 279 279 279 279 279 278 278 278 278 278 278 278 278 278 277 277 276 276 276 276 276 276 276 276 275 275 275 275 275 275 274 274 274 273 273 273 273 272 272 272 271 271 271 271 271 271 271 271 271 271 270 270 270 270 270 270 269 269 269 269 269 269 269
282 281 281 281 281 280 280 280 280 280 280 280 280 280 280 280 280 280 280 280 280 280 280 280 280 280 280 279 279 279 279 279 279 279 279 278 278 278 277 276 276 276 276 276 276 275 275 275 275 275 275 274 274 274 273 273 273 272 272 272 271 271 271 270 270 270 270 270 270 270 270 270 270 270 269 269 269 269 269 269 269 269 269 269 269
282 282 282 282 282 282 282 282 282 282 282 282 282 282 282 282 282 282 282 282 281 281 281 281 281 281 281 280 280 280 280 279 279 279 279 279 278 278 277 277 277 276 276 276 276 275 275 275 275 274 274 274 273 273 273 272 272 272 271 271 271 270 270 270 270 270 270 270 270 270 270 269 269 269 268 268 268 268 268 268 269 269 269 269 268
283 284 284 284 284 284 284 284 284 284 284 284 284 284 284 284 284 284 283 283 283 283 282 282 282 282 281 281 281 281 280 280 280 280 279 279 279 278 278 278 277 277 277 276 276 275 275 275 275 274 274 274 273 273 273 272 272 271 271 271 270 270 270 270 270 270 270 270 269 269 269 269 269 268 268 268 268 268 268 268 269 268 268 268 267
286 286 286 286 286 286 286 286 286 286 286 286 286 286 285 285 285 285 285 284 284 284 283 283 283 282 282 282 281 281 281 280 280 280 279 279 278 278 278 278 278 277 277 276 276 276 275 275 274 274 274 273 273 273 273 272 272 271 271 270 270 270 270 270 271 271 271 270 270 269 269 269 269 269 268 268 268 269 269 269 269 268 268 268 268
287 287 287 287 287 287 287 287 287 287 287 287 287 286 286 286 286 285 285 285 285 284 284 284 284 283 283 282 282 282 281 281 281 280 280 279 279 278 278 278 278 277 277 277 276 276 275 275 274 274 273 273 273 273 272 272 272 271 271 270 270 270 271 271 271 271 271 271 271 271 270 270 270 269 269 269 269 269 270 269 269 269 269 269 269
288 288 288 288 288 288 288 288 288 288 287 287 287 287 287 287 286 286 286 286 286 286 285 285 285 284 284 283 283 282 282 281 281 281 280 280 279 279 278 278 278 277 277 277 276 276 275 275 275 274 274 273 273 273 272 272 271 271 270 270 270 270 270 270 271 271 271 271 271 271 271 271 271 270 270 270 270 270 270 270 269 269 269 269 269
289 289 289 289 289 289 289 289 289 288 288 288 288 288 288 288 287 287 287 287 287 286 286 286 285 285 284 284 283 283 282 282 281 281 281 280 280 279 279 278 278 278 277 277 277 276 276 276 275 275 274 273 273 273 272 272 271 270 270 270 270 270 270 270 270 270 271 271 271 271 271 271 271 271 271 271 271 270 270 270 269 269 269 269 269
290 290 290 290 290 290 290 290 290 290 290 290 289 289 289 289 289 289 288 288 288 287 287 287 286 286 285 285 284 284 283 283 282 282 281 281 280 280 279 279 279 278 278 277 277 277 277 276 276 275 274 274 273 273 272 271 271 270 270 270 270 270 270 270 270 270 270 270 270 270 270 270 270 270 270 270 270 270 270 269 269 269 269 269 269
291 291 291 291 291 291 291 291 291 291 291 291 291 291 291 290 290 290 290 289 289 289 288 288 287 287 287 286 286 285 284 284 283 282 282 281 281 281 280 280 279 279 278 278 277 277 277 277 276 275 275 274 273 273 272 271 271 271 271 271 270 270 270 270 269 269 269 269 269 269 269 270 270 270 269 270 270 269 269 269 269 269 269 269 269
292 292 293 293 293 293 293 293 293 293 292 292 292 292 292 291 291 291 291 291 290 290 290 289 289 288 288 287 287 286 285 285 284 283 283 282 282 281 281 281 280 279 279 279 278 278 277 276 276 275 275 274 274 273 272 271 272 272 272 272 271 271 271 270 269 268 268 268 268 268 268 269 269 269 269 269 269 269 269 269 269 269 269 269 269
294 294 294 294 294 294 294 294 294 294 294 294 294 293 293 293 293 293 293 292 292 292 291 291 290 290 289 289 288 287 287 286 285 284 283 283 282 282 282 282 281 281 280 279 279 278 277 276 275 275 275 274 274 273 271 271 272 273 273 272 272 271 270 269 268 268 267 267 267 267 267 267 267 268 268 268 268 269 269 269 270 270 270 270 270
295 295 295 295 295 295 295 295 295 295 296 296 296 296 296 296 295 295 295 294 294 294 293 293 292 292 291 290 290 289 288 288 287 286 285 284 283 282 282 282 282 281 280 280 279 278 277 276 275 274 274 274 273 272 272 272 273 272 272 272 272 271 269 268 268 267 267 266 266 266 266 266 266 266 267 267 267 268 268 268 269 269 270 270 271
296 296 296 296 297 297 297 298 298 298 298 298 298 298 298 298 298 297 297 297 296 296 296 295 295 294 293 293 292 292 291 290 289 287 286 285 284 283 283 283 282 282 281 280 279 278 277 276 275 275 274 274 273 272 272 273 272 271 271 272 271 271 270 268 267 266 266 265 265 265 265 265 265 265 266 266 266 267 267 267 268 268 269 270 271
297 298 298 299 299 300 300 300 300 301 301 301 301 301 301 300 300 300 300 300 300 300 299 299 298 297 297 296 296 295 294 292 291 289 288 287 286 285 285 284 284 283 282 282 281 280 278 277 276 275 274 273 273 273 272 272 271 271 271 271 270 270 269 268 267 266 265 265 265 264 265 265 265 265 265 265 265 265 265 266 266 267 268 269 270
300 300 301 301 301 302 302 303 303 304 304 304 303 303 303 303 303 303 303 304 304 304 303 303 303 302 302 301 300 299 297 295 294 292 291 290 289 288 288 287 286 286 285 284 283 282 280 278 277 276 274 273 272 272 271 271 270 270 269 269 269 269 268 268 267 267 266 265 265 264 264 264 264 264 264 264 264 264 264 264 265 266 267 268 269
302 302 303 303 304 305 305 306 307 307 307 307 307 307 307 307 307 307 307 308 308 308 307 307 307 307 307 306 304 302 300 299 298 297 296 295 294 293 292 291 290 289 288 287 285 284 282 281 279 277 275 273 272 271 270 270 269 269 268 268 268 268 268 268 267 267 267 266 266 265 264 263 263 262 262 262 262 262 262 263 263 264 266 267 268
304 304 305 306 307 308 309 310 310 311 311 311 311 310 311 311 311 311 311 311 311 310 310 310 311 312 311 310 308 307 305 304 303 302 301 300 299 298 296 295 294 292 291 289 287 286 284 283 281 278 276 274 273 271 270 270 269 268 268 268 268 269 269 269 269 269 268 267 266 265 263 262 261 261 261 261 261 261 261 261 262 262 264 266 268
307 307 308 309 310 311 312 313 314 315 315 315 315 314 314 314 314 314 314 314 314 313 313 313 315 317 317 315 314 313 312 311 311 309 308 306 304 302 301 300 299 297 294 292 290 289 287 285 283 281 279 276 274 272 271 270 269 269 270 270 271 272 273 273 273 272 270 267 264 262 261 260 260 260 260 260 260 260 260 260 261 261 263 265 266
309 310 311 312 313 314 316 317 318 319 320 320 319 318 318 318 318 318 318 318 317 317 318 318 320 323 324 323 322 321 320 320 319 317 315 313 311 309 308 306 304 302 299 297 294 292 291 289 287 285 283 280 278 275 273 272 271 271 271 271 272 273 273 273 271 269 267 264 262 260 260 260 260 260 260 260 259 260 260 260 260 261 262 264 265
311 312 313 314 315 317 319 320 322 323 324 324 324 323 323 323 324 324 324 324 324 324 324 324 326 329 331 332 332 331 330 330 329 328 326 323 320 318 316 314 311 308 306 303 300 297 295 293 291 288 285 283 280 277 275 274 273 272 271 270 269 268 267 266 266 264 263 263 263 262 262 261 261 260 260 260 260 260 261 261 261 262 263 265 266
313 314 314 315 317 319 321 323 325 326 327 328 329 329 329 329 330 331 332 332 331 331 330 330 332 334 337 339 341 342 341 340 340 339 338 337 334 331 328 325 322 319 317 313 309 306 303 301 298 294 290 287 284 281 279 277 276 275 274 272 270 268 266 265 265 265 265 265 266 265 264 262 261 261 260 260 260 260 261 262 263 264 265 266 267
314 315 316 318 320 321 323 325 326 328 330 331 332 333 334 334 335 336 337 338 338 338 338 337 338 340 342 344 347 351 351 351 351 350 350 350 348 346 344 342 338 335 333 329 325 321 319 316 312 308 303 298 294 290 288 285 283 280 277 274 273 272 269 267 265 265 266 267 267 267 265 264 263 262 262 262 262 262 262 264 265 266 267 268 269
317 318 320 321 323 323 324 325 327 329 331 333 334 335 337 338 339 340 341 342 343 345 346 346 346 347 349 350 352 355 358 359 0 1 1 1 360 359 358 358 356 354 352 351 348 345 341 338 334 328 322 316 310 305 302 299 296 291 286 280 277 275 273 270 268 267 268 269 269 268 268 267 266 265 265 264 263 263 264 265 267 268 270 270 271
320 322 324 325 324 324 325 327 329 331 333 334 336 337 339 341 342 344 345 346 347 349 351 352 353 354 355 357 358 359 1 3 5 7 8 9 10 9 9 8 8 7 6 6 5 3 1 358 355 351 346 341 334 328 323 319 314 307 299 292 285 281 279 278 276 274 272 271 271 271 271 270 268 267 266 266 265 265 267 269 270 271 271 271 270
324 326 327 327 326 326 327 329 331 333 334 336 337 339 341 342 344 346 348 349 351 352 354 356 358 359 1 2 3 4 5 7 8 10 11 13 14 16 16 16 16 16 16 15 14 13 12 10 7 5 2 359 354 349 344 338 332 323 313 305 299 294 290 286 282 279 276 274 273 272 272 271 270 270 269 269 269 270 271 271 270 269 269 268 268
327 328 329 328 328 329 330 332 334 335 336 338 340 341 343 344 345 347 349 351 353 355 356 358 0 2 4 6 7 9 10 11 12 13 14 15 16 17 18 20 21 21 22 22 22 22 21 20 18 16 14 11 8 5 1 356 349 343 334 325 316 308 300 292 287 283 280 278 276 275 273 272 271 271 271 271 272 272 272 270 268 267 267 267 268
329 330 330 330 331 332 333 335 337 338 340 342 343 344 346 347 348 349 350 352 355 356 358 360 1 3 5 7 9 11 12 13 15 16 17 18 18 19 20 20 21 22 23 24 25 26 26 27 27 26 25 24 22 20 18 15 12 8 4 356 347 337 327 318 309 301 296 291 286 281 278 276 275 274 274 275 275 273 270 269 268 268 268 268 269
330 331 332 333 334 335 337 339 341 342 343 345 346 348 349 350 351 352 353 355 357 358 360 2 3 4 6 8 10 11 13 14 16 17 18 19 20 20 21 22 22 23 23 24 24 25 26 27 28 28 28 28 28 27 27 26 24 23 21 17 12 6 360 353 343 331 322 313 304 297 290 287 285 282 279 278 277 274 272 270 269 269 271 271 271
331 333 334 335 337 339 341 343 344 345 346 347 348 350 351 352 354 355 356 358 359 0 1 3 4 5 7 8 9 11 12 13 15 16 17 19 20 21 21 22 23 23 24 24 25 25 26 26 26 27 27 27 27 26 26 25 24 23 21 18 13 8 3 359 353 344 336 327 319 312 305 298 295 291 287 283 280 277 275 273 271 270 271 272 273
334 335 337 338 339 342 343 344 346 347 348 350 352 353 355 357 358 359 0 1 2 3 4 5 6 7 8 9 10 11 12 13 14 15 16 17 18 19 20 20 21 22 23 23 24 24 24 25 25 25 25 25 25 25 24 23 22 21 19 16 13 8 4 1 358 353 347 339 331 324 318 312 307 302 296 290 286 282 281 279 276 274 273 274 275
337 338 339 341 343 345 346 347 349 351 353 355 357 358 360 1 2 3 4 5 5 6 7 8 9 10 11 12 13 13 14 15 15 16 16 17 17 18 18 18 19 19 20 20 21 21 22 22 23 23 23 23 23 23 23 22 21 20 18 15 13 10 7 4 1 358 354 348 341 335 330 323 317 311 305 299 294 290 289 286 283 280 278 277 278
341 342 343 345 346 348 351 353 354 356 357 359 360 1 2 3 4 5 6 6 7 8 9 10 11 11 12 13 13 14 15 16 17 17 18 18 18 19 19 19 19 19 19 19 20 19 19 19 19 19 19 19 19 19 19 19 18 17 15 13 11 8 6 3 360 357 354 349 343 338 333 326 321 314 308 303 298 294 291 288 285 283 281 280 279
345 346 347 348 351 354 356 357 358 358 359 360 1 2 3 4 5 6 7 9 10 10 11 11 12 13 13 14 15 15 16 16 17 17 17 18 18 19 19 19 20 20 20 21 21 21 21 21 20 19 18 18 17 16 16 15 14 13 12 10 8 5 3 1 358 355 352 348 344 340 334 328 324 318 312 307 302 298 294 291 288 287 284 283 282
348 350 352 354 357 359 360 0 0 1 1 2 3 4 5 6 8 9 10 11 12 13 14 14 15 15 16 17 17 18 18 18 18 18 18 18 18 18 18 19 19 19 19 20 20 21 22 22 22 22 21 21 20 20 19 18 17 15 13 10 7 4 1 359 357 355 353 350 346 342 337 332 327 321 316 311 306 302 299 296 294 292 289 288 287
352 355 358 1 2 3 3 3 3 3 4 4 5 6 7 8 9 11 12 13 14 15 16 17 18 18 19 19 19 20 20 20 20 20 20 19 19 19 19 19 19 19 19 19 19 19 19 19 20 20 21 21 22 23 23 22 21 19 17 14 9 5 1 358 357 357 356 354 351 348 344 339 333 327 322 316 310 306 303 299 296 294 291 290 289
357 0 3 4 5 5 6 6 5 5 5 6 7 7 8 8 9 11 12 13 15 16 17 18 19 19 19 19 19 20 20 20 20 20 20 20 20 20 20 20 20 20 20 20 20 19 19 19 18 17 17 17 17 18 18 19 18 16 15 13 10 8 5 3 2 2 1 359 357 353 348 342 337 330 324 318 313 309 305 301 298 296 293 291 290
1 3 4 5 6 8 8 8 8 7 7 6 7 7 8 8 9 10 10 11 13 14 16 17 17 18 18 18 17 17 18 18 18 18 19 19 20 20 20 20 21 21 21 21 21 21 21 20 20 19 17 16 15 14 14 14 14 12 11 10 10 11 13 14 15 15 12 8 4 359 354 351 348 344 339 333 326 319 312 306 301 298 295 293 292
360 1 2 4 6 8 9 9 9 9 8 8 7 7 7 7 8 8 9 9 10 11 12 13 14 15 15 15 15 16 16 16 15 16 16 17 18 19 20 20 20 20 20 20 20 20 20 20 20 20 19 18 17 16 16 15 14 12 11 11 13 17 23 26 26 25 21 16 12 10 11 12 14 15 16 16 14 10 4 355 342 330 320 311 304
355 355 357 358 1 3 4 5 6 6 7 7 7 6 6 6 6 6 7 7 8 8 9 10 11 12 13 14 14 14 14 14 13 13 13 14 15 17 18 19 19 19 18 17 17 17 17 17 18 18 19 20 20 19 19 18 17 14 13 15 18 23 28 30 30 29 27 25 25 27 29 31 33 35 37 38 40 41 42 43 42 42 41 38 33
348 347 348 350 351 353 355 356 358 359 1 2 3 3 4 4 3 4 4 5 6 6 7 8 9 10 11 12 12 13 13 12 11 11 10 11 11 13 14 16 17 17 17 16 15 15 15 15 16 16 17 18 20 21 21 21 19 18 18 20 23 25 29 31 33 34 34 35 37 39 40 40 40 41 41 42 44 46 47 49 51 53 54 56 56
Height
5517 5516 5514 5512 5510 5508 5506 5505 5503 5502 5500 5499 5497 5496 5494 5492 5490 5488 5487 5485 5483 5482 5480 5479 5477 5475 5474 5472 5470 5468 5466 5465 5463 5462 5461 5459 5457 5456 5454 5453 5452 5452 5451 5450 5449 5448 5447 5447 5446 5445 5443 5442 5442 5440 5439 5438 5435 5435 5433 5431 5431 5428 5426 5425 5424 5435 5449 5446 5440 5443 5441 5436 5440 5442 5438 5438 5440 5438 5439 5440 5439 5440 5440 5440 5441
5507 5505 5503 5501 5500 5498 5496 5495 5493 5492 5490 5489 5487 5485 5483 5481 5479 5477 5475 5473 5472 5470 5468 5466 5465 5463 5461 5459 5457 5456 5454 5452 5451 5449 5448 5446 5444 5442 5440 5439 5438 5438 5437 5436 5436 5435 5434 5434 5433 5432 5431 5430 5429 5428 5427 5426 5424 5423 5423 5420 5419 5418 5414 5412 5411 5416 5429 5436 5431 5428 5427 5422 5423 5428 5425 5422 5425 5425 5423 5424 5425 5424 5424 5426 5426
5497 5495 5494 5492 5490 5489 5487 5485 5483 5481 5480 5478 5476 5474 5471 5469 5467 5465 5462 5460 5459 5457 5455 5454 5452 5450 5449 5447 5445 5443 5441 5440 5438 5436 5435 5433 5431 5429 5427 5426 5425 5424 5423 5423 5422 5421 5421 5421 5420 5419 5418 5417 5416 5415 5414 5414 5413 5411 5411 5408 5406 5405 5403 5398 5397 5399 5407 5420 5422 5416 5413 5409 5408 5412 5412 5408 5410 5411 5409 5409 5409 5408 5408 5409 5409
5488 5487 5485 5483 5481 5479 5477 5475 5473 5471 5469 5467 5465 5463 5461 5458 5455 5453 5451 5448 5446 5444 5442 5440 5439 5437 5436 5434 5432 5431 5429 5427 5426 5423 5422 5420 5419 5417 5415 5414 5412 5411 5410 5409 5409 5408 5407 5407 5406 5405 5404 5403 5403 5402 5400 5400 5400 5398 5397 5395 5392 5391 5390 5385 5383 5384 5386 5397 5407 5405 5398 5395 5394 5396 5398 5397 5396 5397 5396 5395 5394 5393 5393 5393 5392
5479 5478 5476 5474 5472 5470 5468 5466 5463 5461 5459 5457 5455 5452 5450 5448 5445 5443 5441 5438 5436 5434 5431 5429 5427 5425 5423 5421 5419 5417 5415 5414 5412 5410 5408 5405 5404 5403 5402 5401 5400 5398 5397 5397 5396 5395 5394 5393 5393 5390 5388 5389 5388 5388 5386 5385 5384 5383 5381 5380 5378 5375 5374 5372 5368 5368 5368 5374 5385 5390 5385 5380 5378 5379 5381 5382 5380 5381 5381 5380 5379 5379 5379 5379 5378
5470 5468 5467 5465 5462 5459 5457 5455 5453 5451 5449 5446 5444 5442 5440 5437 5435 5432 5430 5428 5426 5423 5421 5418 5416 5414 5411 5409 5407 5405 5402 5400 5398 5396 5393 5390 5389 5388 5388 5387 5386 5385 5384 5383 5382 5381 5381 5380 5379 5376 5374 5374 5373 5372 5371 5369 5367 5366 5365 5364 5362 5359 5358 5357 5353 5351 5351 5354 5362 5369 5370 5365 5361 5359 5362 5363 5363 5364 5364 5363 5363 5363 5363 5364 5363
5461 5459 5457 5455 5452 5449 5447 5445 5443 5440 5438 5436 5433 5431 5428 5426 5424 5421 5418 5417 5414 5412 5410 5408 5405 5403 5400 5398 5396 5394 5391 5389 5386 5383 5379 5376 5374 5373 5373 5372 5371 5370 5369 5369 5368 5367 5366 5366 5364 5363 5360 5358 5358 5356 5354 5353 5350 5349 5348 5346 5344 5343 5341 5339 5337 5334 5333 5336 5340 5346 5350 5349 5345 5341 5341 5342 5343 5345 5343 5341 5344 5346 5345 5344 5346
5451 5449 5447 5445 5442 5439 5436 5434 5432 5429 5427 5425 5422 5420 5417 5414 5412 5410 5407 5405 5403 5401 5399 5396 5394 5391 5389 5386 5384 5382 5379 5377 5374 5370 5366 5362 5360 5358 5358 5356 5355 5355 5354 5354 5353 5352 5351 5350 5349 5347 5345 5342 5341 5339 5337 5336 5333 5332 5332 5329 5326 5325 5323 5321 5319 5317 5316 5317 5320 5324 5328 5330 5328 5324 5320 5320 5322 5325 5323 5319 5322 5327 5325 5323 5327
5441 5439 5437 5434 5431 5429 5426 5423 5421 5418 5416 5413 5411 5408 5406 5403 5401 5398 5396 5393 5390 5388 5386 5383 5381 5379 5376 5373 5370 5368 5366 5363 5360 5356 5351 5348 5345 5343 5341 5340 5339 5339 5339 5338 5337 5336 5335 5334 5332 5329 5327 5324 5323 5321 5319 5318 5316 5315 5314 5311 5307 5306 5304 5302 5299 5298 5297 5297 5300 5305 5307 5308 5310 5306 5301 5299 5299 5302 5304 5300 5298 5303 5306 5304 5308
5431 5428 5425 5423 5420 5418 5415 5413 5410 5407 5404 5402 5399 5397 5394 5391 5389 5386 5383 5380 5378 5375 5372 5369 5366 5364 5362 5359 5356 5353 5350 5348 5344 5340 5335 5331 5328 5326 5324 5324 5323 5322 5322 5321 5320 5320 5318 5316 5313 5310 5308 5306 5304 5302 5300 5299 5297 5296 5295 5293 5289 5286 5284 5281 5279 5277 5276 5276 5280 5284 5285 5287 5291 5288 5282 5280 5277 5277 5282 5281 5276 5279 5285 5285 5289
5420 5416 5414 5413 5410 5407 5404 5402 5398 5396 5393 5390 5387 5385 5382 5379 5376 5374 5370 5367 5364 5361 5358 5355 5351 5349 5346 5344 5341 5338 5335 5332 5327 5322 5318 5313 5309 5306 5305 5306 5306 5305 5304 5303 5303 5302 5299 5296 5294 5292 5289 5287 5284 5282 5280 5279 5278 5275 5273 5271 5268 5265 5263 5261 5260 5258 5256 5256 5260 5263 5263 5265 5270 5268 5262 5260 5256 5253 5256 5260 5258 5259 5263 5265 5269
5409 5406 5403 5402 5399 5396 5393 5391 5387 5384 5381 5378 5375 5372 5369 5366 5363 5360 5356 5353 5350 5347 5343 5340 5336 5333 5330 5327 5325 5322 5319 5315 5310 5305 5300 5295 5290 5284 5283 5286 5288 5287 5286 5285 5283 5281 5279 5277 5276 5273 5270 5267 5264 5262 5260 5258 5257 5255 5252 5250 5246 5243 5241 5239 5240 5240 5239 5237 5239 5242 5244 5244 5247 5246 5242 5238 5235 5232 5233 5238 5240 5240 5243 5246 5246
5399 5395 5392 5390 5388 5384 5382 5379 5375 5372 5368 5365 5361 5358 5355 5351 5348 5344 5341 5338 5334 5331 5327 5323 5320 5316 5313 5310 5307 5304 5301 5297 5292 5287 5281 5277 5271 5262 5259 5265 5270 5268 5266 5265 5263 5261 5259 5257 5256 5253 5250 5246 5243 5241 5239 5238 5237 5234 5231 5229 5225 5222 5219 5217 5218 5221 5222 5221 5220 5221 5224 5223 5223 5224 5222 5216 5212 5212 5214 5217 5222 5223 5223 5224 5222
5388 5384 5381 5379 5376 5372 5369 5366 5362 5359 5355 5351 5347 5344 5340 5337 5333 5328 5325 5322 5318 5314 5310 5307 5303 5299 5295 5292 5289 5286 5283 5278 5273 5268 5262 5257 5251 5241 5239 5245 5249 5247 5245 5244 5242 5240 5238 5236 5235 5233 5230 5225 5222 5220 5217 5216 5215 5212 5209 5207 5204 5202 5200 5199 5198 5199 5201 5202 5201 5202 5204 5202 5200 5202 5203 5197 5190 5191 5196 5200 5203 5203 5200 5199 5200
5377 5374 5370 5367 5364 5360 5357 5354 5350 5346 5342 5337 5333 5330 5325 5321 5317 5312 5309 5305 5301 5297 5293 5289 5286 5282 5277 5273 5271 5268 5264 5259 5255 5250 5243 5236 5228 5221 5221 5227 5227 5225 5224 5222 5220 5219 5217 5215 5213 5212 5210 5206 5202 5199 5196 5194 5192 5189 5187 5185 5184 5183 5182 5181 5181 5180 5179 5178 5178 5181 5184 5183 5180 5181 5183 5178 5172 5174 5179 5182 5183 5180 5177 5179 5181
5366 5363 5359 5355 5352 5348 5344 5341 5337 5332 5328 5323 5319 5315 5311 5306 5301 5297 5293 5289 5284 5280 5276 5272 5268 5264 5259 5255 5252 5249 5246 5240 5236 5231 5224 5215 5206 5201 5205 5208 5206 5204 5204 5201 5198 5196 5195 5193 5191 5190 5189 5186 5182 5178 5175 5173 5169 5166 5165 5165 5165 5165 5165 5165 5164 5163 5160 5157 5157 5158 5161 5162 5162 5162 5161 5159 5159 5161 5162 5162 5162 5160 5159 5162 5164
5355 5351 5347 5343 5339 5335 5331 5327 5323 5318 5314 5309 5305 5300 5296 5291 5286 5281 5277 5273 5268 5263 5259 5254 5249 5245 5241 5236 5232 5230 5227 5221 5216 5211 5204 5194 5184 5181 5185 5186 5185 5183 5182 5180 5176 5174 5173 5171 5168 5167 5167 5165 5162 5159 5155 5150 5146 5143 5145 5146 5147 5148 5149 5149 5149 5147 5143 5140 5139 5140 5142 5143 5143 5143 5140 5140 5144 5147 5145 5144 5144 5143 5143 5145 5147
5342 5338 5334 5330 5325 5321 5317 5312 5308 5304 5299 5294 5290 5285 5280 5275 5270 5266 5261 5256 5252 5247 5241 5237 5231 5226 5221 5217 5213 5209 5206 5202 5197 5192 5185 5174 5164 5160 5163 5165 5164 5162 5161 5159 5156 5153 5153 5151 5147 5144 5145 5144 5142 5140 5136 5129 5123 5122 5125 5128 5131 5132 5133 5135 5135 5132 5128 5125 5123 5124 5126 5126 5127 5126 5124 5124 5127 5130 5130 5129 5128 5127 5128 5129 5130
5330 5325 5321 5316 5312 5307 5303 5298 5294 5289 5284 5279 5275 5269 5264 5259 5254 5249 5244 5239 5235 5229 5223 5219 5213 5207 5202 5197 5193 5188 5185 5181 5176 5172 5167 5157 5144 5139 5142 5144 5144 5142 5140 5139 5138 5136 5134 5133 5128 5123 5122 5124 5123 5122 5117 5108 5102 5103 5107 5111 5116 5117 5118 5121 5121 5117 5115 5112 5110 5109 5110 5110 5111 5111 5111 5110 5111 5112 5113 5113 5112 5113 5114 5115 5114
5318 5313 5308 5303 5299 5294 5289 5284 5279 5274 5269 5264 5259 5253 5248 5243 5238 5232 5227 5222 5216 5211 5205 5200 5195 5189 5183 5178 5173 5168 5164 5161 5157 5152 5148 5141 5128 5120 5122 5125 5124 5122 5121 5121 5121 5121 5118 5115 5110 5104 5102 5104 5106 5106 5100 5087 5082 5088 5092 5094 5099 5103 5104 5106 5105 5102 5101 5099 5097 5096 5096 5095 5096 5096 5097 5097 5096 5096 5098 5098 5099 5099 5099 5101 5102
5305 5300 5295 5290 5285 5280 5275 5269 5264 5259 5254 5249 5244 5238 5232 5227 5222 5216 5211 5206 5200 5194 5188 5182 5177 5172 5166 5160 5155 5150 5145 5142 5139 5134 5130 5125 5113 5104 5104 5106 5105 5103 5104 5104 5105 5104 5101 5097 5093 5088 5085 5086 5089 5090 5082 5070 5069 5076 5076 5076 5084 5089 5089 5090 5089 5087 5087 5086 5085 5085 5084 5083 5083 5083 5083 5083 5082 5082 5084 5085 5085 5085 5085 5088 5089
5292 5287 5282 5277 5272 5266 5260 5255 5250 5245 5239 5234 5228 5222 5217 5212 5206 5201 5196 5190 5185 5179 5173 5167 5162 5157 5151 5144 5139 5134 5129 5125 5122 5118 5114 5110 5101 5091 5088 5090 5089 5086 5087 5088 5087 5086 5084 5081 5078 5073 5070 5070 5073 5070 5062 5058 5062 5064 5059 5059 5068 5074 5074 5074 5073 5072 5073 5073 5072 5073 5073 5072 5072 5072 5071 5071 5070 5071 5072 5072 5072 5072 5073 5074 5076
5280 5275 5269 5264 5258 5252 5247 5241 5236 5230 5225 5219 5213 5208 5203 5197 5192 5186 5181 5176 5171 5165 5159 5153 5148 5142 5137 5130 5124 5119 5115 5110 5106 5102 5099 5095 5090 5081 5075 5074 5073 5070 5070 5070 5070 5069 5067 5064 5061 5058 5056 5056 5056 5051 5047 5049 5053 5050 5045 5046 5051 5055 5058 5059 5059 5059 5059 5059 5060 5061 5060 5060 5061 5061 5061 5060 5060 5061 5061 5062 5062 5061 5061 5063 5064
5267 5262 5256 5251 5245 5239 5233 5228 5222 5217 5211 5206 5201 5195 5190 5185 5179 5173 5168 5163 5158 5152 5146 5140 5135 5129 5124 5118 5112 5106 5101 5096 5091 5087 5083 5080 5076 5070 5064 5060 5058 5055 5054 5054 5053 5053 5051 5048 5046 5044 5043 5042 5040 5035 5034 5038 5039 5037 5034 5034 5035 5038 5042 5043 5044 5045 5046 5046 5048 5049 5048 5049 5050 5050 5050 5050 5050 5051 5051 5051 5052 5051 5052 5054 5055
5255 5250 5244 5239 5233 5227 5222 5216 5211 5206 5200 5195 5189 5184 5179 5174 5168 5162 5157 5151 5146 5140 5135 5128 5123 5118 5112 5107 5101 5095 5089 5083 5078 5073 5069 5065 5061 5057 5052 5048 5044 5041 5039 5039 5038 5037 5036 5034 5032 5030 5029 5027 5025 5023 5022 5024 5024 5024 5023 5022 5022 5024 5026 5028 5029 5031 5032 5034 5036 5037 5037 5038 5039 5039 5040 5040 5041 5041 5041 5041 5042 5043 5044 5045 5047
5244 5239 5233 5228 5223 5218 5212 5207 5201 5196 5190 5184 5179 5174 5169 5164 5158 5152 5147 5142 5136 5131 5125 5118 5113 5107 5102 5096 5090 5083 5077 5071 5066 5061 5056 5052 5048 5044 5040 5037 5033 5029 5027 5025 5023 5022 5021 5019 5019 5017 5015 5014 5013 5011 5011 5011 5011 5012 5011 5011 5011 5012 5013 5015 5016 5018 5020 5023 5025 5026 5027 5027 5028 5029 5029 5030 5031 5031 5031 5033 5034 5035 5035 5037 5039
5234 5229 5224 5219 5214 5209 5204 5199 5193 5187 5181 5175 5169 5164 5160 5155 5149 5144 5139 5135 5129 5122 5116 5110 5104 5099 5093 5087 5080 5073 5066 5060 5055 5050 5046 5041 5037 5033 5029 5026 5022 5019 5017 5014 5011 5009 5008 5007 5006 5005 5003 5002 5002 5001 5000 5000 5001 5001 5000 5000 5001 5001 5002 5004 5005 5007 5010 5012 5014 5016 5017 5017 5019 5019 5019 5021 5022 5022 5022 5024 5027 5028 5027 5028 5031
5226 5221 5216 5211 5206 5201 5196 5191 5186 5179 5173 5167 5161 5157 5152 5147 5142 5137 5132 5128 5122 5116 5110 5103 5098 5092 5086 5079 5072 5065 5058 5052 5047 5042 5037 5032 5028 5024 5020 5016 5013 5010 5007 5004 5001 4998 4997 4996 4995 4994 4993 4993 4993 4992 4992 4991 4991 4991 4991 4991 4992 4993 4994 4995 4997 4998 5001 5003 5005 5006 5007 5008 5009 5010 5010 5012 5013 5013 5014 5016 5019 5021 5021 5021 5024
5217 5213 5209 5204 5199 5194 5189 5184 5179 5173 5167 5160 5153 5149 5146 5142 5137 5131 5126 5121 5115 5110 5104 5098 5092 5086 5079 5072 5066 5060 5052 5045 5040 5034 5029 5025 5020 5016 5012 5009 5005 5002 4999 4996 4993 4990 4988 4987 4986 4985 4985 4985 4985 4985 4984 4984 4984 4984 4984 4984 4985 4986 4987 4989 4990 4992 4993 4994 4996 4997 4998 5000 5001 5001 5003 5005 5006 5006 5007 5009 5011 5014 5015 5015 5017
5210 5206 5202 5197 5192 5188 5183 5177 5172 5167 5161 5155 5148 5141 5137 5135 5132 5127 5121 5115 5109 5103 5097 5091 5086 5081 5073 5065 5059 5054 5048 5041 5035 5029 5024 5019 5014 5010 5006 5003 4999 4996 4992 4990 4987 4985 4982 4981 4980 4979 4979 4978 4978 4978 4978 4978 4978 4978 4978 4979 4979 4980 4981 4982 4983 4984 4985 4986 4987 4989 4991 4993 4994 4995 4996 4998 4999 4999 5000 5002 5005 5007 5008 5010 5011
5203 5199 5195 5191 5187 5182 5177 5172 5167 5161 5156 5151 5145 5138 5131 5127 5124 5121 5116 5111 5105 5098 5092 5086 5080 5075 5069 5062 5055 5048 5043 5037 5031 5025 5020 5015 5010 5006 5002 4998 4994 4991 4988 4985 4983 4980 4978 4976 4975 4974 4974 4973 4973 4973 4972 4972 4973 4973 4973 4973 4974 4974 4975 4976 4976 4978 4979 4980 4982 4984 4986 4987 4988 4989 4990 4992 4993 4994 4994 4996 4998 5000 5002 5004 5005
5198 5194 5190 5186 5181 5177 5172 5167 5162 5157 5152 5147 5141 5136 5129 5122 5117 5114 5111 5107 5101 5095 5088 5082 5077 5071 5066 5060 5053 5047 5040 5034 5029 5023 5017 5012 5008 5003 4999 4995 4991 4988 4985 4983 4980 4977 4975 4974 4972 4971 4970 4969 4969 4969 4968 4968 4968 4969 4969 4969 4969 4970 4971 4972 4973 4974 4975 4976 4978 4979 4981 4982 4983 4984 4985 4986 4988 4989 4989 4990 4992 4994 4996 4997 4998
5193 5189 5185 5180 5176 5172 5167 5163 5158 5153 5148 5143 5138 5133 5128 5122 5115 5110 5105 5102 5098 5093 5087 5081 5075 5069 5063 5057 5052 5046 5040 5033 5028 5022 5017 5012 5007 5002 4998 4994 4990 4986 4984 4981 4978 4976 4974 4972 4971 4969 4968 4967 4967 4966 4966 4966 4966 4966 4967 4967 4967 4967 4969 4970 4971 4971 4972 4973 4975 4975 4977 4978 4979 4980 4981 4982 4983 4984 4985 4985 4987 4989 4990 4991 4992
5189 5185 5180 5176 5171 5167 5163 5159 5154 5150 5145 5140 5135 5130 5126 5121 5115 5109 5103 5098 5093 5089 5084 5079 5073 5067 5062 5056 5050 5045 5039 5034 5028 5022 5017 5012 5007 5003 4998 4994 4990 4987 4983 4981 4978 4976 4973 4972 4970 4969 4967 4966 4966 4965 4964 4964 4965 4965 4965 4965 4965 4966 4967 4967 4968 4969 4970 4971 4972 4972 4973 4974 4975 4976 4977 4978 4979 4980 4980 4981 4983 4984 4985 4986 4986
5184 5180 5176 5172 5168 5164 5159 5155 5151 5146 5142 5137 5133 5128 5123 5118 5114 5109 5104 5098 5093 5088 5083 5078 5072 5067 5061 5056 5050 5045 5040 5034 5029 5024 5019 5013 5009 5004 5000 4996 4992 4988 4985 4982 4979 4976 4974 4972 4970 4969 4968 4967 4966 4965 4965 4964 4964 4964 4964 4964 4965 4965 4965 4966 4967 4968 4968 4969 4969 4970 4971 4971 4972 4973 4974 4974 4975 4976 4977 4978 4979 4979 4980 4981 4981
5180 5176 5172 5169 5165 5160 5156 5152 5147 5143 5139 5135 5131 5126 5121 5117 5112 5107 5103 5098 5093 5088 5082 5078 5073 5067 5062 5057 5051 5046 5041 5035 5030 5025 5020 5016 5011 5006 5002 4998 4994 4990 4987 4984 4981 4978 4976 4974 4972 4970 4969 4968 4967 4966 4965 4965 4964 4964 4964 4964 4964 4964 4965 4965 4966 4966 4966 4967 4967 4968 4968 4969 4969 4970 4970 4971 4971 4972 4973 4974 4975 4975 4976 4977 4977
5176 5173 5169 5165 5162 5158 5153 5149 5145 5141 5137 5133 5128 5124 5119 5115 5110 5106 5101 5097 5092 5087 5082 5077 5072 5067 5062 5057 5052 5047 5042 5037 5032 5027 5023 5018 5014 5009 5005 5001 4997 4993 4990 4987 4984 4981 4978 4976 4974 4972 4971 4969 4968 4967 4966 4965 4965 4964 4964 4964 4964 4964 4964 4964 4964 4964 4965 4965 4965 4966 4966 4966 4967 4967 4967 4968 4969 4969 4970 4971 4972 4972 4973 4974 4974
5173 5170 5166 5162 5159 5155 5151 5147 5143 5139 5135 5130 5126 5122 5118 5113 5109 5105 5100 5096 5091 5086 5082 5077 5072 5067 5063 5058 5053 5049 5044 5039 5034 5030 5025 5021 5016 5012 5008 5004 5000 4997 4993 4990 4987 4984 4982 4979 4977 4975 4973 4971 4970 4969 4968 4967 4966 4965 4965 4964 4964 4964 4964 4963 4963 4963 4964 4964 4964 4964 4964 4964 4965 4965 4966 4966 4967 4967 4968 4969 4969 4970 4970 4971 4972
5171 5167 5164 5160 5156 5152 5149 5145 5141 5137 5133 5129 5125 5120 5116 5112 5108 5104 5099 5095 5091 5086 5082 5077 5073 5068 5063 5059 5054 5050 5045 5040 5036 5031 5027 5023 5019 5015 5011 5007 5003 5000 4997 4993 4990 4988 4985 4982 4980 4978 4976 4974 4973 4971 4970 4969 4968 4967 4966 4966 4965 4965 4964 4964 4964 4963 4963 4963 4963 4963 4963 4964 4964 4964 4965 4965 4965 4966 4966 4967 4967 4968 4968 4968 4969
5168 5165 5161 5158 5154 5150 5147 5143 5139 5135 5131 5127 5123 5120 5116 5112 5108 5104 5099 5095 5091 5086 5082 5078 5073 5069 5064 5060 5055 5051 5046 5042 5038 5034 5030 5026 5022 5018 5014 5010 5007 5003 5000 4997 4994 4991 4988 4986 4983 4981 4979 4977 4976 4974 4973 4971 4970 4969 4968 4967 4967 4966 4965 4965 4964 4964 4964 4964 4964 4963 4963 4963 4963 4963 4964 4964 4964 4964 4964 4965 4965 4966 4966 4966 4966
5166 5162 5159 5156 5153 5149 5145 5142 5138 5135 5131 5127 5123 5119 5115 5112 5108 5104 5100 5095 5091 5087 5083 5079 5074 5070 5066 5061 5057 5053 5049 5044 5040 5036 5032 5028 5024 5020 5017 5013 5010 5006 5003 5000 4997 4994 4991 4989 4986 4984 4982 4980 4978 4977 4975 4974 4972 4971 4970 4969 4968 4967 4966 4966 4965 4965 4964 4964 4964 4963 4963 4963 4963 4963 4963 4963 4963 4963 4963 4963 4963 4964 4964 4964 4964
5164 5161 5157 5154 5151 5147 5144 5140 5137 5134 5130 5127 5123 5119 5116 5112 5108 5104 5100 5096 5092 5088 5084 5080 5075 5071 5067 5063 5059 5055 5050 5046 5042 5038 5034 5030 5026 5023 5019 5016 5012 5009 5006 5003 5000 4997 4994 4992 4989 4987 4985 4983 4981 4979 4977 4976 4974 4973 4972 4970 4969 4968 4968 4967 4966 4965 4965 4964 4964 4963 4963 4962 4962 4962 4962 4962 4961 4961 4961 4961 4961 4962 4962 4962 4962
5162 5159 5156 5153 5150 5146 5143 5140 5137 5133 5130 5126 5123 5119 5116 5112 5108 5104 5101 5097 5093 5089 5085 5080 5077 5073 5068 5064 5060 5056 5052 5048 5044 5040 5036 5033 5029 5025 5022 5018 5015 5012 5009 5006 5003 5000 4997 4995 4992 4990 4988 4985 4983 4981 4980 4978 4976 4975 4973 4972 4971 4970 4969 4968 4967 4966 4965 4964 4964 4963 4963 4962 4962 4961 4961 4960 4960 4960 4960 4960 4959 4959 4959 4959 4959
5161 5158 5155 5152 5149 5146 5143 5140 5137 5133 5130 5127 5123 5120 5116 5112 5109 5105 5101 5097 5093 5090 5086 5082 5078 5074 5070 5066 5062 5058 5054 5050 5046 5043 5039 5035 5031 5028 5024 5021 5018 5015 5011 5008 5005 5003 5000 4997 4995 4992 4990 4988 4986 4984 4982 4980 4978 4977 4975 4974 4972 4971 4970 4969 4967 4966 4966 4965 4964 4963 4963 4962 4961 4961 4960 4959 4959 4958 4958 4958 4957 4957 4957 4957 4957
5160 5157 5154 5151 5149 5146 5143 5140 5137 5133 5130 5127 5123 5120 5116 5113 5109 5105 5102 5098 5094 5091 5087 5083 5079 5076 5072 5068 5064 5060 5056 5053 5049 5045 5041 5038 5034 5030 5027 5024 5020 5017 5014 5011 5008 5005 5002 5000 4997 4995 4993 4990 4988 4986 4984 4982 4980 4979 4977 4975 4974 4972 4971 4969 4968 4967 4966 4965 4964 4963 4962 4962 4961 4960 4959 4958 4958 4957 4956 4956 4956 4955 4955 4955 4955
5159 5156 5154 5151 5148 5145 5143 5139 5136 5133 5130 5127 5124 5120 5117 5113 5110 5106 5103 5099 5095 5092 5088 5085 5081 5077 5074 5070 5066 5062 5059 5055 5051 5047 5044 5040 5036 5033 5029 5026 5023 5020 5016 5013 5011 5008 5005 5002 5000 4997 4995 4993 4991 4988 4986 4984 4983 4981 4979 4977 4975 4973 4971 4970 4969 4968 4967 4966 4964 4963 4962 4961 4960 4959 4958 4957 4956 4956 4955 4954 4954 4954 4954 4953 4953
5158 5156 5153 5151 5148 5145 5143 5140 5137 5133 5130 5127 5124 5121 5117 5114 5111 5107 5104 5100 5097 5093 5090 5086 5083 5079 5075 5072 5068 5065 5061 5057 5054 5050 5046 5043 5039 5035 5032 5028 5025 5022 5019 5016 5013 5010 5007 5005 5002 4999 4997 4995 4993 4990 4988 4986 4984 4982 4980 4978 4976 4974 4972 4971 4969 4968 4967 4966 4965 4964 4962 4961 4960 4959 4957 4956 4955 4954 4954 4953 4953 4952 4952 4952 4952
5158 5156 5153 5151 5148 5145 5143 5140 5137 5134 5131 5127 5124 5121 5118 5115 5111 5108 5105 5101 5098 5095 5091 5088 5084 5081 5077 5074 5070 5067 5063 5060 5056 5053 5049 5045 5042 5038 5034 5031 5028 5024 5021 5018 5015 5012 5009 5007 5004 5001 4999 4996 4994 4992 4990 4988 4986 4984 4982 4979 4977 4975 4973 4971 4970 4969 4968 4967 4965 4964 4963 4961 4960 4958 4956 4955 4954 4953 4952 4951 4951 4951 4951 4951 4951
5158 5156 5153 5151 5148 5145 5143 5140 5137 5134 5131 5128 5124 5121 5118 5115 5112 5109 5106 5102 5099 5096 5092 5089 5086 5082 5079 5075 5072 5069 5065 5062 5058 5055 5051 5048 5044 5041 5037 5034 5030 5027 5024 5020 5017 5015 5012 5009 5006 5003 5001 4998 4996 4993 4991 4989 4987 4985 4983 4980 4978 4976 4974 4972 4971 4970 4969 4968 4966 4965 4963 4962 4960 4958 4957 4955 4953 4952 4951 4950 4950 4949 4949 4949 4949
5157 5155 5153 5150 5148 5145 5143 5140 5137 5134 5131 5128 5125 5122 5118 5115 5112 5109 5106 5103 5100 5097 5093 5090 5087 5083 5080 5077 5073 5070 5067 5063 5060 5057 5053 5050 5046 5043 5039 5036 5032 5029 5026 5023 5020 5017 5014 5011 5008 5005 5003 5000 4998 4995 4993 4991 4989 4986 4984 4982 4980 4978 4976 4974 4973 4972 4970 4969 4967 4966 4965 4963 4962 4960 4958 4957 4955 4953 4952 4951 4950 4950 4949 4949 4949
5157 5155 5152 5150 5147 5145 5142 5140 5137 5134 5131 5128 5125 5122 5118 5115 5112 5109 5106 5103 5100 5097 5094 5091 5088 5084 5081 5078 5075 5072 5068 5065 5062 5058 5055 5051 5048 5045 5041 5038 5034 5031 5028 5025 5022 5019 5016 5013 5010 5007 5005 5002 4999 4997 4995 4992 4990 4988 4986 4984 4982 4980 4978 4977 4975 4974 4972 4971 4969 4968 4967 4965 4964 4962 4961 4959 4958 4956 4955 4954 4953 4952 4951 4951 4951